Las Vegas, NV

7:27 AM PST on February 19, 2017 (GMT -0800)
Nellis Air Force Base

Weather History for KLSV - October, 2012

Change the Weather History Date:

Thursday, October 25, 2012

  Actual Average Record
Temperature  
Mean Temperature 58 °F -  
Max Temperature 70 °F 73 °F 87 °F (2014)
Min Temperature 47 °F 49 °F 44 °F (1997)
Degree Days  
Heating Degree Days 6    
Growing Degree Days 8 (Base 50)    
Moisture  
Dew Point 22 °F    
Average Humidity 24    
Maximum Humidity 45    
Minimum Humidity 15    
Precipitation  
Precipitation 0.00 in - - ()
Sea Level Pressure  
Sea Level Pressure 30.13 in    
Wind  
Wind Speed 7 mph (ENE)    
Max Wind Speed 26 mph    
Max Gust Speed 34 mph    
Visibility 10 miles    
Events      
Averages and records for this station are not official NWS values.
T = Trace of Precipitation, MM = Missing Value Source: NWS Daily Summary

Daily Weather History Graph

Daily Weather History Graph

Search for Another Location

Airport or City:

Trip Planner

Search our weather history database for the weather conditions in past years. The results will help you decide how hot, cold, wet, or windy it might be!

Date:

Astronomy

Oct. 25, 2012 Rise Set
Actual Time 6:56 AM PDT 5:50 PM PDT
Civil Twilight 6:30 AM PDT 6:17 PM PDT
Nautical Twilight 6:00 AM PDT 6:47 PM PDT
Astronomical Twilight 5:30 AM PDT 7:17 PM PDT
Moon 3:33 PM PDT (10/25) 3:03 AM PDT (10/25)
Length of Visible Light 11h 46m
Length of Day
10h 54m
Waxing Gibbous, 85% of the Moon is Illuminated
Oct 25
Waxing Gibbous
Oct 29
Full
Nov 6
Last Quarter
Nov 13
New
Nov 20
First Quarter

Hourly Weather History & Observations

Time (PDT) Temp. Dew Point Humidity Pressure Visibility Wind Dir Wind Speed Gust Speed Precip Events Conditions
12:55 AM 54.3 °F 23.9 °F 31% 30.06 in 10.0 mi Calm Calm - N/A   Clear
1:55 AM 53.4 °F 23.9 °F 32% 30.07 in 10.0 mi Calm Calm - N/A   Clear
2:55 AM 47.7 °F 27.0 °F 45% 30.09 in 10.0 mi NE 8.1 mph - N/A   Clear
3:55 AM 52.7 °F 21.6 °F 30% 30.08 in 10.0 mi East 10.4 mph - N/A   Clear
4:55 AM 51.8 °F 20.8 °F 30% 30.11 in 10.0 mi East 9.2 mph - N/A   Clear
5:55 AM 52.7 °F 21.2 °F 29% 30.12 in 10.0 mi East 13.8 mph - N/A   Clear
6:55 AM 52.7 °F 21.6 °F 30% 30.13 in 10.0 mi East 8.1 mph - N/A   Clear
7:55 AM 52.7 °F 22.5 °F 31% 30.15 in 10.0 mi Calm Calm - N/A   Clear
8:55 AM 57.9 °F 24.1 °F 27% 30.16 in 10.0 mi ENE 4.6 mph - N/A   Clear
9:55 AM 62.2 °F 23.2 °F 22% 30.16 in 10.0 mi NE 10.4 mph - N/A   Clear
10:55 AM 64.2 °F 22.8 °F 21% 30.17 in 10.0 mi ENE 10.4 mph - N/A   Clear
11:55 AM 66.2 °F 21.4 °F 18% 30.16 in 10.0 mi East 10.4 mph - N/A   Clear
12:55 PM 67.5 °F 20.1 °F 16% 30.12 in 10.0 mi East 9.2 mph - N/A   Clear
1:55 PM 68.7 °F 19.6 °F 15% 30.11 in 10.0 mi East 8.1 mph - N/A   Clear
2:55 PM 69.8 °F 20.5 °F 15% 30.10 in 10.0 mi ENE 6.9 mph - N/A   Clear
3:55 PM 70.2 °F 19.6 °F 15% 30.09 in 10.0 mi ESE 6.9 mph - N/A   Clear
4:55 PM 70.2 °F 20.8 °F 15% 30.09 in 10.0 mi NE 9.2 mph - N/A   Clear
5:55 PM 67.5 °F 22.8 °F 18% 30.10 in 10.0 mi ENE 5.8 mph - N/A   Clear
6:55 PM 63.1 °F 23.0 °F 22% 30.13 in 10.0 mi East 6.9 mph - N/A   Clear
7:55 PM 60.8 °F 23.4 °F 24% 30.15 in 10.0 mi ENE 6.9 mph - N/A   Clear
8:55 PM 64.4 °F 21.7 °F 20% 30.16 in 10.0 mi ENE 9.2 mph - N/A   Clear
9:55 PM 64.0 °F 20.1 °F 19% 30.19 in 8.0 mi NNE 23.0 mph 31.1 mph N/A   Clear
10:55 PM 62.4 °F 19.9 °F 20% 30.22 in 10.0 mi NNE 26.5 mph 34.5 mph N/A   Clear
11:55 PM 60.3 °F 21.6 °F 23% 30.24 in 10.0 mi NNE 23.0 mph 32.2 mph N/A   Clear